Content
SEND FEEDBACK

Daily
Averages
Monthly
Summary
United States of America

TYNER, OHIO


Home > North America > United States > Ohio
Elevation: 850 feet     Latitude: 40 05N     Longitude: 081 35W

WEATHER
 
SELECT A DAY
Number of Records: 201,667;   Date Range: 1/28/98 - 9/29/14
 
SHARE

PRINT THIS DATA

[ ← Previous Day ]
WEATHER ALMANAC - JANUARY 31, 2013
[ Next Day → ]
[ °C ]   °F
Weather ElementAverageHighLow
Temperature27.9 °F36 °F (12:53 am)21 °F (11:53 pm)
Dewpoint19.3 °F30.2 °F (12:44 am)12 °F (11:53 am)
Humidity70.6 %81 % (12:44 am)55 % (8:51 am)
Barometer29.69 in29.91 in (9:53 pm)29.39 in (12:44 am)
Wind Speed12.6 mph18.4 mph (4:38 am)
Wind Gust40.3 mph (4:53 am)
Weather ElementAverage
Visibility5.8 mi
Wind DirectionWSW (260.7 °)

Weather ElementTotal
Precipitation0.10 in
Heating Degree Days36.5 (Base 65)
Averaged from 68 records on January 31, 2013
WEATHER CONDITIONS BREAKOUT
WIND DIRECTION BREAKOUT
WEATHER BY HOUR - JANUARY 31, 2013
[ °C ]   °F
Local TimeTemperatureDewpointHumidityBarometerVisibilityWind DirectionWind SpeedGust SpeedPrecipitationEventsConditions
12:44 AM35.6 °F30.2 °F81 %29.39 in7.0 miWest (260°)16.1 mph26.5 mph0.02 inSnowLight Snow
12:51 AM35.6 °F30.2 °F81 %29.40 in9.0 miWest (260°)15.0 mph26.5 mph0.02 inOvercast
12:53 AM36.0 °F30.0 °F79 %29.41 in9.0 miWest (260°)16.1 mph26.5 mph0.02 inOvercast
1:01 AM35.6 °F30.2 °F81 %29.39 in10.0 miWest (260°)15.0 mph26.5 mphOvercast
1:21 AM35.6 °F28.4 °F75 %29.41 in10.0 miWSW (250°)13.8 mph21.9 mphOvercast
1:53 AM36.0 °F27.0 °F70 %29.44 in10.0 miWest (260°)13.8 mph24.2 mphOvercast
2:04 AM35.6 °F26.6 °F70 %29.44 in10.0 miWSW (250°)12.7 mph20.7 mphOvercast
2:16 AM35.6 °F28.4 °F75 %29.46 in2.0 miWSW (250°)15.0 mph24.2 mph0.00 inSnowLight Snow
2:23 AM33.8 °F26.6 °F75 %29.46 in1.5 miWest (270°)16.1 mph32.2 mph0.00 inSnowLight Snow
2:27 AM33.8 °F26.6 °F75 %29.46 in4.0 miWest (270°)13.8 mph32.2 mph0.00 inSnowLight Snow
2:43 AM35.6 °F26.6 °F70 %29.46 in10.0 miWest (280°)12.7 mph26.5 mph0.00 inOvercast
2:53 AM35.1 °F25.0 °F67 %29.47 in10.0 miWest (280°)15.0 mph23.0 mph0.00 inOvercast
3:13 AM33.8 °F26.6 °F75 %29.49 in1.5 miWest (270°)16.1 mph26.5 mph0.00 inSnowLight Snow
3:15 AM32.0 °F26.6 °F80 %29.48 in1.0 miWest (270°)12.7 mph26.5 mph0.00 inSnowLight Snow
3:24 AM33.8 °F26.6 °F75 %29.48 in2.0 miWest (270°)11.5 mph24.2 mph0.00 inSnowLight Snow
3:31 AM33.8 °F26.6 °F75 %29.49 in5.0 miWest (270°)11.5 mph25.3 mph0.00 inSnowLight Snow
3:53 AM33.1 °F25.0 °F72 %29.51 in9.0 miWest (260°)13.8 mph26.5 mph0.00 inSnowLight Snow
4:38 AM32.0 °F21.2 °F64 %29.53 in9.0 miWest (260°)18.4 mph26.5 mph0.00 inOvercast
4:53 AM32.0 °F21.0 °F64 %29.55 in10.0 miWest (270°)17.3 mph40.3 mph0.00 inOvercast
5:34 AM30.2 °F19.4 °F64 %29.57 in10.0 miWest (260°)17.3 mph35.7 mphOvercast
5:53 AM30.0 °F19.9 °F66 %29.60 in7.0 miWest (270°)16.1 mph23.0 mph0.00 inSnowLight Snow
6:28 AM28.4 °F19.4 °F69 %29.61 in2.0 miWest (260°)15.0 mph33.4 mph0.01 inSnowLight Snow
6:37 AM28.4 °F17.6 °F64 %29.61 in9.0 miWest (270°)18.4 mph29.9 mph0.01 inOvercast
6:45 AM28.4 °F17.6 °F64 %29.62 in10.0 miWest (270°)18.4 mph31.1 mph0.01 inOvercast
6:53 AM28.9 °F17.1 °F61 %29.63 in10.0 miWest (280°)10.4 mph27.6 mph0.01 inOvercast
7:21 AM26.6 °F17.6 °F69 %29.65 in5.0 miWest (260°)16.1 mph29.9 mph0.00 inSnowLight Snow
7:53 AM26.1 °F18.0 °F71 %29.69 in2.5 miWest (280°)10.4 mph25.3 mph0.00 inSnowLight Snow
8:08 AM26.6 °F17.6 °F69 %29.68 in4.0 miWest (270°)13.8 mph25.3 mph0.00 inSnowLight Snow
8:34 AM24.8 °F15.8 °F69 %29.71 in2.5 miWest (270°)16.1 mph24.2 mph0.00 inSnowLight Snow
8:44 AM24.8 °F14.0 °F64 %29.71 in6.0 miWNW (290°)16.1 mph25.3 mph0.00 inSnowLight Snow
8:51 AM26.6 °F12.2 °F55 %29.71 in9.0 miWest (270°)13.8 mph25.3 mph0.00 inOvercast
8:53 AM26.1 °F12.9 °F58 %29.73 in10.0 miWest (270°)12.7 mph24.2 mph0.00 inOvercast
9:37 AM24.8 °F17.6 °F74 %29.72 in3.0 miWSW (250°)10.4 mph21.9 mph0.00 inSnowLight Snow
9:45 AM24.8 °F17.6 °F74 %29.72 in2.5 miSW (230°)9.2 mph18.4 mph0.00 inSnowLight Snow
9:53 AM25.0 °F18.0 °F75 %29.75 in2.0 miWSW (240°)9.2 mph0.00 inSnowLight Snow
9:59 AM24.8 °F17.6 °F74 %29.74 in1.0 miWSW (240°)16.1 mph21.9 mph0.00 inSnowLight Snow
10:09 AM24.8 °F17.6 °F74 %29.74 in2.5 miWSW (250°)11.5 mph21.9 mph0.00 inSnowLight Snow
10:16 AM24.8 °F17.6 °F74 %29.74 in8.0 miWSW (240°)8.1 mph18.4 mph0.00 inOvercast
10:27 AM24.8 °F17.6 °F74 %29.74 in1.8 miWSW (250°)10.4 mph25.3 mph0.00 inSnowLight Snow
10:35 AM26.6 °F17.6 °F69 %29.74 in4.0 miWSW (250°)9.2 mph21.9 mph0.00 inSnowLight Snow
10:53 AM26.1 °F17.1 °F69 %29.78 in5.0 miWSW (240°)12.7 mph23.0 mph0.00 inSnowLight Snow
11:53 AM25.0 °F12.0 °F58 %29.81 in10.0 miWest (270°)13.8 mph32.2 mph0.00 inOvercast
12:48 PM24.8 °F14.0 °F64 %29.80 in2.5 miWSW (240°)18.4 mph28.8 mph0.00 inSnowLight Snow
12:53 PM26.1 °F12.9 °F58 %29.82 in4.0 miWest (270°)16.1 mph28.8 mph0.00 inSnowLight Snow
1:53 PM25.0 °F12.0 °F58 %29.83 in10.0 miWest (270°)12.7 mph21.9 mph0.00 inOvercast
2:53 PM25.0 °F12.9 °F60 %29.84 in4.0 miWSW (250°)16.1 mph23.0 mph0.00 inSnowLight Snow
3:06 PM24.8 °F14.0 °F64 %29.82 in1.5 miWSW (250°)18.4 mph26.5 mph0.00 inSnowLight Snow
3:09 PM24.8 °F15.8 °F69 %29.82 in0.8 miWSW (250°)11.5 mph26.5 mph0.00 inSnowLight Snow
3:15 PM24.8 °F17.6 °F74 %29.82 in1.0 miWSW (250°)8.1 mph26.5 mph0.00 inSnowLight Snow
3:19 PM24.8 °F17.6 °F74 %29.82 in2.0 miWSW (250°)11.5 mph18.4 mph0.00 inSnowLight Snow
3:21 PM24.8 °F15.8 °F69 %29.82 in4.0 miWSW (250°)10.4 mph18.4 mph0.00 inSnowLight Snow
3:53 PM26.1 °F14.0 °F60 %29.85 in9.0 miWSW (240°)12.7 mph21.9 mph0.00 inOvercast
4:47 PM26.6 °F17.6 °F69 %29.82 in2.5 miWSW (240°)10.4 mph0.00 inSnowLight Snow
4:53 PM25.0 °F18.0 °F75 %29.86 in1.5 miSW (230°)10.4 mph0.00 inSnowLight Snow
4:58 PM24.8 °F19.4 °F80 %29.83 in0.8 miWSW (240°)10.4 mph0.00 inSnowLight Snow
5:15 PM24.8 °F19.4 °F80 %29.83 in3.0 miWSW (240°)8.1 mph18.4 mph0.00 inSnowLight Snow
5:28 PM24.8 °F19.4 °F80 %29.82 in10.0 miSW (230°)8.1 mph0.00 inScattered Clouds
5:53 PM25.0 °F18.0 °F75 %29.86 in10.0 miWSW (240°)8.1 mph18.4 mph0.00 inPartly Cloudy
6:53 PM25.0 °F18.0 °F75 %29.87 in8.0 miSW (230°)9.2 mph0.00 inSnowLight Snow
7:53 PM25.0 °F16.0 °F69 %29.89 in10.0 miWSW (250°)5.8 mph0.00 inOvercast
9:04 PM24.8 °F17.6 °F74 %29.86 in7.0 miWest (270°)8.1 mph16.1 mph0.00 inSnowLight Snow
9:23 PM24.8 °F17.6 °F74 %29.86 in10.0 miWest (260°)6.9 mph0.00 inOvercast
9:53 PM25.0 °F14.0 °F63 %29.91 in9.0 miWest (270°)10.4 mph24.2 mph0.00 inOvercast
10:53 PM24.1 °F14.0 °F65 %29.91 in10.0 miWest (270°)8.1 mphOvercast
11:24 PM21.2 °F15.8 °F80 %29.86 in2.5 miNW (310°)10.4 mph0.00 inSnowLight Snow
11:30 PM21.2 °F14.0 °F74 %29.86 in3.0 miWNW (300°)9.2 mph18.4 mph0.00 inSnowLight Snow
11:37 PM21.2 °F15.8 °F80 %29.86 in3.0 miNNW (330°)10.4 mph0.00 inSnowLight Snow
11:53 PM21.0 °F14.0 °F74 %29.90 in6.0 miWNW (300°)5.8 mph0.00 inHaze
Hourly data recorded from KPHD, located miles away from Tyner, Ohio







STORIES FROM OUR PARTNERS